Simultaneous Nadir Overpasses (SNOs) Predictions

Prediction of SNOs between METOP-B and TERRA Satellite Orbit:

Table of predicted SNOs for the next 14.0 days since TLE Epoch: 9/26/2014
Index Date (METOP-B) Time (METOP-B) Lat,Lon (METOP-B) SZA (METOP-B ) Date (TERRA) Time (TERRA) Lat,Lon (TERRA) SZA (TERRA ) Distance(km) Time Diff (sec)
1 09/26/2014 18:49:44 -81.34, 125.28 94.18 09/26/2014 18:50:22 -81.34, 125.29 94.16 0.18 38
2 09/26/2014 19:40:24 81.34, -67.00 85.89 09/26/2014 19:39:48 81.35, -66.93 85.88 1.22 36
3 09/29/2014 14:24:04 -81.34,-168.37 93.07 09/29/2014 14:24:46 -81.34,-168.31 93.04 1.05 42
4 09/29/2014 15:14:44 81.34, -0.64 87.00 09/29/2014 15:14:12 81.35, -0.54 86.99 1.67 32
5 10/02/2014 09:58:23 -81.34,-102.06 91.97 10/02/2014 09:59:16 -81.33,-102.11 91.96 1.16 53
6 10/
